Temp
24 23 24 26 26 26 26 26 26 28 29 26 26 27 29 30 29 28 28 28 28 28 28 27 26 25 25 24 22 21 19 16 18 17 16 15 16 15 15 15 15 15 15 14
24 23 25 26 26 24 24 25 26 27 28 26 26 27 29 30 29 29 29 29 29 28 28 27 26 25 24 23 22 21 19 17 16 17 15 16 16 15 15 15 15 15 15 14
23 26 23 23 24 23 24 24 25 26 27 27 26 26 28 29 29 29 29 28 28 28 27 26 25 23 21 20 20 20 20 18 16 15 15 14 14 15 14 15 14 14 13 13
24 26 23 23 23 24 24 26 25 25 25 25 27 25 28 29 29 29 29 29 28 27 24 24 24 23 21 20 19 19 19 19 17 16 14 14 14 14 14 14 14 14 13 12
25 23 22 22 24 25 24 24 24 25 25 25 26 26 28 30 28 29 30 29 26 25 24 24 22 21 20 20 17 17 18 18 17 16 14 15 14 14 14 15 14 13 12 12
24 23 24 24 24 24 24 23 24 24 24 23 25 26 27 29 29 29 27 26 25 24 24 22 21 19 19 17 17 18 15 15 16 15 14 14 15 15 14 14 13 13 12 13
25 24 24 24 23 23 23 23 23 23 23 23 26 25 27 29 28 28 28 26 24 24 23 22 21 20 18 16 15 15 14 13 14 14 14 14 14 14 13 13 13 13 12 12
25 24 25 24 24 25 23 24 23 22 23 25 24 24 26 28 27 26 27 26 24 23 22 22 21 20 18 15 17 17 14 14 14 14 14 14 14 14 13 13 13 13 12 12
25 25 26 25 25 25 25 23 25 23 23 22 24 26 27 28 27 27 25 24 24 24 23 22 21 19 18 16 16 17 15 14 14 14 14 14 14 13 13 13 12 12 12 11
25 23 25 25 24 24 24 25 22 23 20 21 24 25 26 25 25 26 25 24 24 23 23 22 21 20 18 17 16 17 14 14 14 14 14 13 13 13 13 12 12 12 11 12
24 23 24 23 22 24 24 23 23 23 23 21 21 23 25 25 25 25 26 25 24 23 22 21 20 19 19 18 17 16 14 14 14 14 13 13 12 12 11 12 11 11 12 11
23 22 22 23 25 25 24 24 24 22 21 23 23 22 26 25 25 24 24 23 22 22 22 21 21 20 18 18 17 16 15 15 15 14 13 12 12 11 12 12 12 12 11 11
21 21 20 21 23 24 22 23 23 23 23 21 20 21 24 24 24 23 24 23 23 21 20 20 20 20 19 18 17 16 16 14 14 13 12 11 10 11 11 11 11 11 10 10
18 21 21 20 21 23 23 23 23 22 21 21 21 22 23 24 24 24 23 23 22 22 21 22 20 19 18 18 17 16 15 14 13 13 11 10 10 10 10 10 10 10 10 10
18 19 20 21 22 22 22 22 22 22 22 20 21 22 23 24 24 24 24 23 23 23 22 21 20 19 18 18 17 16 15 14 13 12 11 10 10 9 9 10 10 10 10 9
18 17 19 18 20 20 20 21 21 21 21 22 22 22 24 24 24 24 23 23 23 22 22 21 21 19 18 17 17 16 15 14 12 10 10 10 8 10 10 10 9 9 9 9
17 17 14 13 17 17 16 18 19 20 21 21 20 22 23 23 23 24 23 23 22 22 21 20 19 18 17 16 16 15 14 12 11 9 10 8 9 10 9 9 9 7 6 7
15 15 12 11 11 11 17 20 21 20 21 22 22 22 22 23 22 22 22 22 21 21 20 20 18 17 16 15 14 13 12 10 9 9 8 7 8 8 7 6 6 5 5 4
14 12 10 10 10 13 15 18 19 20 20 22 21 21 22 22 21 22 21 21 20 20 18 17 16 15 14 13 12 11 10 9 8 9 8 8 7 7 6 5 5 4 4 5
13 12 10 8 10 12 17 21 20 20 17 21 22 21 21 22 20 21 21 20 19 18 16 15 14 13 12 11 10 9 9 8 8 8 8 7 6 6 6 5 4 4 3 2
11 10 10 9 9 12 17 20 20 16 19 22 21 21 21 20 21 20 17 17 15 15 14 13 12 12 10 9 9 8 8 7 8 7 7 6 5 5 4 4 3 3 2 1
11 10 10 10 10 11 17 19 17 19 19 20 20 19 19 19 19 18 16 15 13 13 12 12 11 10 9 8 7 7 7 7 6 5 5 4 4 4 5 4 3 2 1 1
13 11 13 12 12 16 17 18 18 19 19 19 19 18 17 17 17 17 14 13 12 12 11 10 11 9 7 7 7 6 6 6 7 6 6 5 5 5 4 3 2 2 1 0
14 16 13 14 16 16 17 17 16 17 17 16 17 15 15 14 15 14 13 12 11 10 10 10 9 7 7 7 6 5 5 6 5 5 4 4 4 3 3 3 2 1 0 0
8 7 11 12 11 10 12 12 10 11 11 12 12 13 12 12 12 12 11 10 10 9 9 9 8 7 6 5 4 3 4 4 3 2 2 1 1 1 1 1 1 0 0 -0
10 10 8 8 6 6 7 7 6 7 8 9 8 8 8 8 8 9 9 9 8 8 8 7 7 6 4 3 2 2 3 3 2 1 1 0 1 1 -0 -1 0 0 0 -0
Height
1492 1493 1486 1476 1473 1473 1472 1473 1471 1459 1459 1471 1470 1463 1457 1452 1452 1457 1458 1460 1462 1463 1465 1467 1470 1474 1478 1482 1484 1488 1490 1491 1490 1493 1496 1500 1503 1506 1509 1512 1515 1517 1519 1521
1489 1488 1477 1473 1473 1478 1480 1478 1473 1463 1460 1467 1465 1458 1449 1447 1448 1449 1449 1452 1453 1455 1457 1462 1467 1471 1474 1477 1480 1483 1486 1489 1487 1489 1493 1495 1497 1501 1505 1507 1509 1512 1514 1517
1485 1470 1480 1479 1476 1483 1478 1477 1471 1468 1461 1461 1461 1457 1443 1439 1441 1443 1444 1447 1449 1451 1456 1460 1465 1469 1471 1473 1476 1480 1483 1485 1482 1485 1490 1491 1493 1496 1499 1501 1504 1506 1509 1513
1477 1471 1478 1480 1477 1474 1477 1463 1469 1470 1471 1471 1450 1466 1437 1433 1436 1437 1439 1442 1445 1451 1458 1459 1461 1464 1467 1469 1471 1473 1476 1478 1474 1479 1483 1484 1487 1489 1491 1496 1497 1499 1501 1504
1470 1475 1477 1479 1472 1469 1472 1468 1470 1468 1468 1464 1456 1459 1439 1424 1433 1432 1429 1434 1446 1451 1455 1457 1459 1459 1461 1462 1462 1463 1467 1470 1468 1473 1476 1479 1481 1485 1489 1491 1494 1497 1499 1501
1470 1471 1471 1467 1467 1470 1469 1472 1471 1469 1468 1475 1455 1455 1438 1426 1425 1427 1436 1440 1446 1449 1451 1453 1454 1455 1456 1456 1454 1456 1460 1462 1462 1464 1468 1472 1477 1480 1483 1486 1489 1491 1491 1493
1462 1465 1466 1467 1469 1469 1470 1469 1476 1477 1472 1469 1439 1449 1435 1422 1428 1432 1435 1440 1444 1446 1447 1449 1450 1451 1453 1453 1451 1452 1455 1456 1458 1462 1466 1469 1472 1474 1476 1479 1481 1483 1488 1489
1457 1465 1456 1460 1461 1458 1465 1464 1470 1480 1468 1450 1451 1456 1440 1426 1430 1437 1435 1438 1442 1444 1444 1446 1447 1448 1449 1449 1449 1449 1450 1452 1454 1455 1459 1463 1467 1469 1472 1475 1479 1481 1484 1487
1453 1455 1448 1453 1455 1457 1454 1466 1453 1463 1459 1465 1451 1435 1425 1422 1428 1430 1436 1437 1439 1439 1441 1444 1445 1446 1447 1447 1447 1446 1447 1449 1450 1452 1457 1460 1462 1466 1470 1472 1474 1475 1478 1480
1450 1463 1447 1448 1457 1455 1454 1449 1466 1458 1477 1470 1441 1434 1428 1428 1427 1428 1431 1433 1435 1436 1438 1440 1442 1443 1444 1445 1444 1443 1444 1447 1449 1452 1455 1458 1461 1463 1465 1468 1468 1469 1472 1474
1451 1457 1453 1452 1456 1450 1450 1456 1456 1454 1451 1458 1456 1440 1422 1425 1426 1425 1425 1429 1432 1436 1437 1438 1439 1438 1439 1441 1442 1443 1442 1445 1446 1448 1449 1450 1452 1453 1457 1459 1463 1465 1467 1469
1451 1452 1457 1446 1439 1437 1441 1442 1440 1452 1453 1437 1435 1434 1418 1422 1425 1427 1427 1428 1431 1432 1433 1435 1436 1437 1437 1436 1435 1436 1437 1438 1441 1443 1445 1445 1447 1448 1451 1453 1456 1458 1460 1462
1450 1455 1460 1451 1444 1437 1443 1441 1438 1437 1436 1436 1445 1428 1421 1422 1424 1425 1423 1423 1424 1427 1430 1430 1430 1431 1431 1430 1431 1430 1431 1432 1435 1438 1440 1441 1442 1445 1446 1449 1451 1453 1455 1456
1450 1448 1445 1449 1444 1433 1432 1427 1429 1433 1435 1430 1421 1419 1416 1415 1416 1417 1418 1419 1421 1421 1422 1421 1423 1424 1425 1425 1425 1426 1428 1428 1430 1433 1433 1435 1436 1440 1443 1445 1447 1449 1450 1451
1451 1447 1443 1436 1434 1431 1427 1424 1423 1422 1417 1423 1416 1407 1408 1407 1407 1407 1407 1407 1408 1409 1411 1414 1416 1417 1418 1418 1418 1419 1419 1422 1423 1425 1428 1429 1429 1433 1435 1438 1440 1444 1446 1445
1445 1444 1442 1433 1435 1432 1423 1415 1416 1412 1410 1399 1403 1382 1402 1399 1399 1396 1397 1399 1398 1400 1401 1403 1405 1407 1410 1410 1411 1412 1414 1415 1415 1416 1421 1424 1423 1424 1428 1431 1435 1438 1437 1437
1444 1445 1452 1442 1439 1438 1419 1413 1410 1402 1399 1401 1393 1366 1395 1389 1387 1386 1388 1389 1389 1390 1393 1395 1397 1399 1401 1402 1403 1403 1406 1410 1409 1412 1417 1420 1415 1418 1422 1425 1429 1430 1431 1431
1442 1445 1453 1453 1457 1451 1388 1387 1386 1389 1383 1382 1373 1375 1388 1380 1380 1380 1383 1382 1382 1384 1386 1389 1392 1396 1397 1397 1398 1397 1397 1400 1405 1410 1414 1416 1416 1419 1421 1424 1426 1427 1425 1425
1438 1445 1451 1452 1447 1416 1389 1389 1385 1385 1371 1373 1370 1368 1372 1376 1374 1372 1376 1376 1377 1379 1382 1384 1386 1388 1389 1390 1391 1391 1391 1393 1399 1405 1408 1410 1411 1413 1417 1423 1424 1423 1421 1421
1431 1434 1443 1448 1437 1414 1372 1369 1376 1383 1348 1369 1363 1357 1363 1366 1366 1364 1367 1368 1372 1376 1378 1379 1381 1382 1383 1384 1385 1386 1387 1389 1396 1402 1408 1409 1411 1411 1411 1413 1415 1412 1415 1416
1417 1422 1422 1428 1427 1390 1367 1370 1376 1386 1351 1348 1353 1356 1360 1359 1359 1361 1363 1365 1367 1371 1374 1375 1375 1376 1376 1377 1379 1383 1385 1391 1394 1398 1402 1405 1406 1409 1409 1409 1409 1409 1409 1412
1402 1411 1409 1414 1418 1391 1364 1363 1373 1351 1357 1355 1355 1357 1356 1356 1358 1361 1362 1364 1364 1367 1368 1371 1374 1373 1373 1374 1376 1380 1383 1386 1388 1392 1396 1399 1401 1403 1403 1405 1407 1408 1405 1404
1384 1383 1383 1384 1370 1356 1355 1357 1358 1356 1356 1357 1355 1356 1356 1356 1356 1358 1361 1364 1364 1363 1366 1368 1371 1373 1372 1372 1376 1377 1378 1382 1385 1386 1389 1393 1394 1395 1400 1401 1401 1399 1400 1401
1363 1364 1367 1368 1347 1354 1354 1354 1356 1356 1353 1352 1352 1354 1357 1358 1357 1358 1362 1362 1362 1364 1365 1367 1369 1369 1373 1374 1375 1376 1377 1381 1382 1385 1388 1389 1392 1393 1393 1393 1394 1395 1393 1390
1378 1378 1361 1357 1356 1355 1354 1358 1357 1356 1360 1356 1356 1357 1356 1357 1357 1358 1357 1360 1361 1360 1361 1364 1365 1370 1372 1374 1378 1379 1376 1380 1382 1384 1387 1388 1389 1388 1387 1388 1389 1391 1391 1385
1369 1369 1368 1363 1367 1368 1366 1362 1361 1358 1360 1359 1357 1358 1353 1357 1356 1355 1351 1350 1353 1356 1356 1359 1365 1367 1367 1367 1369 1372 1375 1378 1378 1385 1384 1384 1384 1383 1385 1384 1384 1386 1386 1382
Wind_Speed
14 10 13 14 15 17 11 13 14 10 4 4 15 17 17 18 15 17 18 17 17 18 18 16 15 21 24 24 25 26 26 24 28 33 32 30 27 25 24 23 21 19 17 16
11 13 15 10 11 8 13 14 15 14 10 6 16 19 17 15 19 21 20 22 24 22 21 19 15 16 21 24 25 26 26 25 30 31 33 33 29 26 25 24 23 21 18 17
15 7 3 9 12 12 15 16 15 13 7 12 17 20 24 23 23 23 20 15 17 8 8 10 14 17 17 18 21 24 25 25 32 31 32 26 26 26 26 26 23 22 17 16
12 12 8 8 10 10 13 15 12 13 12 11 3 13 8 6 10 14 18 17 11 9 7 7 8 12 15 15 16 19 24 26 35 34 32 33 32 27 28 21 22 19 19 18
3 7 10 12 14 7 8 2 8 12 14 14 17 10 14 13 9 13 14 14 9 8 8 5 6 8 10 13 16 18 21 26 35 33 34 36 28 26 23 23 19 19 18 17
17 2 7 11 6 9 2 6 10 12 12 13 18 14 10 12 15 6 5 9 10 9 5 4 6 7 9 11 15 16 20 24 33 35 37 33 31 27 22 23 20 20 17 18
17 17 9 10 9 7 10 9 7 9 8 12 2 5 12 12 3 5 7 11 8 5 4 3 6 7 8 9 12 13 16 21 25 27 33 31 31 27 27 21 21 20 17 15
10 12 18 14 16 7 14 14 8 10 11 12 9 5 8 3 4 4 9 7 9 9 7 5 6 7 8 10 11 12 14 17 17 24 30 31 28 27 20 22 20 19 15 12
8 11 8 5 11 10 9 9 13 15 15 15 16 20 14 14 13 13 12 12 13 10 9 6 6 7 9 9 12 14 15 19 22 25 29 27 27 20 23 23 21 17 17 14
7 13 10 10 7 14 15 9 7 9 10 17 11 14 9 7 10 9 10 14 15 12 12 10 10 10 10 12 13 15 16 18 20 24 24 22 21 23 22 20 21 18 17 16
12 12 12 7 12 16 10 14 15 16 13 16 17 15 4 7 8 6 9 11 13 13 13 13 14 13 14 15 17 18 18 20 21 24 25 27 27 25 24 23 20 19 19 19
17 7 14 22 17 15 15 19 17 13 15 16 16 15 15 16 14 11 14 12 15 17 14 13 12 14 17 20 21 22 23 25 26 26 26 28 27 28 26 24 23 21 21 18
8 8 13 19 16 17 14 20 21 20 20 26 19 13 5 6 8 17 22 21 19 18 16 15 20 21 22 23 23 24 26 27 27 27 26 26 28 26 24 22 22 21 18 16
3 14 18 15 17 16 19 19 20 21 18 19 22 26 23 21 20 22 26 25 23 24 27 29 22 25 22 24 25 25 27 28 28 27 27 27 28 25 22 22 22 20 16 17
6 20 21 25 26 26 28 29 28 29 26 24 20 30 23 22 22 23 30 30 32 31 30 30 30 29 27 25 25 25 27 28 29 29 28 28 29 24 23 24 22 19 17 20
10 19 19 27 25 26 33 33 30 32 32 35 32 39 25 34 34 33 32 34 32 32 33 34 30 27 24 24 23 24 25 28 32 29 30 29 24 28 26 23 19 18 20 24
18 14 8 20 18 22 28 24 35 36 35 29 33 39 22 26 26 27 30 29 25 24 26 25 24 24 24 23 22 23 24 25 27 25 26 26 28 27 24 19 16 13 13 19
16 17 7 5 4 16 14 17 20 23 29 31 35 31 29 31 38 37 33 33 33 29 26 23 19 22 23 22 20 19 20 24 24 24 24 23 24 20 15 12 10 12 13 12
19 11 4 6 9 22 31 19 14 18 26 22 25 27 25 30 31 27 27 28 26 22 18 17 17 16 16 16 16 16 19 20 22 24 23 20 18 15 11 9 9 9 12 17
25 19 12 4 6 15 12 15 26 28 34 23 28 28 24 21 15 13 21 22 16 12 11 10 10 11 11 12 14 16 20 21 22 22 18 15 13 12 12 10 9 11 10 11
16 14 20 16 11 17 13 18 7 16 11 7 9 13 16 13 14 20 6 3 6 8 9 9 10 10 11 12 15 18 21 20 18 17 16 15 12 10 9 8 9 8 12 16
14 10 10 12 11 25 9 17 28 15 26 28 20 17 21 23 20 19 7 8 8 7 7 10 9 10 12 14 18 18 23 23 21 17 14 12 12 12 11 10 9 11 14 14
18 10 10 15 13 19 16 18 23 28 35 37 33 27 21 19 18 16 8 7 8 7 8 9 10 12 13 16 17 18 24 22 18 16 17 16 15 14 14 15 15 16 13 14
11 16 15 21 25 24 32 33 31 40 30 22 19 12 15 15 13 9 9 7 7 6 8 10 12 13 15 15 15 15 16 16 14 13 13 13 13 14 16 17 19 18 15 14
5 10 8 14 12 16 25 19 19 17 16 16 12 13 14 13 14 12 11 10 11 12 13 14 15 15 14 13 12 11 11 11 8 7 6 6 7 12 14 15 12 14 14 15
6 10 5 2 6 9 6 13 13 11 13 14 12 15 12 18 19 21 18 18 18 15 14 15 16 17 16 14 12 11 11 10 8 7 6 8 14 15 14 14 15 15 18 15
Wind_Direction
250 253 235 246 232 263 311 288 286 283 256 246 265 261 262 262 228 223 226 229 231 235 236 234 222 221 220 218 213 214 211 212 221 215 211 213 214 210 208 202 208 214 223 236
234 243 256 269 266 265 259 262 263 266 262 278 267 269 265 251 244 242 233 230 231 231 231 227 225 224 220 221 219 217 215 213 231 221 214 218 215 207 204 207 213 216 227 228
250 310 357 264 229 237 246 256 264 272 272 234 262 271 248 239 241 241 242 250 256 258 250 235 228 228 227 225 222 222 222 220 228 231 213 213 205 208 201 209 216 221 219 223
263 254 211 233 237 237 256 241 253 268 264 267 141 279 288 193 216 215 228 226 226 214 205 202 208 218 225 227 228 226 221 219 229 232 224 210 205 201 206 205 210 207 209 208
131 202 217 239 249 229 270 354 260 253 260 274 268 255 263 247 219 228 230 166 179 172 182 197 214 213 216 214 218 212 214 215 225 228 218 209 204 207 206 211 203 195 208 208
268 224 245 244 219 223 321 238 244 252 254 256 253 252 264 232 198 125 89 132 157 173 189 204 205 208 210 208 230 213 203 209 221 225 212 212 211 208 203 192 190 193 205 221
222 224 219 229 218 208 220 241 255 222 218 252 176 256 253 316 301 272 194 190 187 204 228 208 227 229 206 211 223 217 210 216 223 218 207 211 211 208 201 199 194 196 202 218
218 196 194 189 225 227 207 248 257 290 294 293 154 234 237 265 29 274 266 242 232 224 206 228 233 214 212 212 230 227 218 223 216 206 210 215 214 207 205 195 199 202 206 218
243 253 172 203 215 236 206 234 263 277 272 271 267 272 264 229 215 238 243 239 225 227 211 228 222 217 219 218 233 234 226 215 209 208 207 214 205 202 195 202 199 203 214 215
272 264 210 196 232 240 251 289 249 221 260 266 250 248 263 176 199 234 236 230 224 227 211 221 221 217 224 231 232 236 225 217 221 218 207 206 203 199 200 204 215 218 223 241
230 236 253 168 213 249 204 233 240 268 271 273 276 271 49 354 351 294 248 233 232 222 231 237 227 220 226 229 228 225 223 215 213 208 205 201 200 202 204 214 219 226 238 247
223 253 247 241 234 252 266 276 264 245 262 256 262 258 265 278 266 233 255 254 234 253 240 244 246 253 249 240 228 226 223 216 215 210 207 204 204 212 214 219 226 234 242 244
169 223 255 252 250 244 242 253 255 263 273 266 267 260 178 218 251 271 269 272 255 229 243 243 263 270 266 250 241 235 227 223 214 212 210 211 210 214 216 218 224 231 231 265
154 245 254 255 257 279 271 249 240 254 255 268 256 276 265 265 264 247 257 261 260 253 264 267 275 276 262 256 258 248 239 227 219 216 214 213 218 214 213 217 224 226 247 280
220 247 250 262 271 271 271 269 265 262 250 251 263 264 267 267 270 274 279 272 259 260 261 271 268 275 270 265 258 248 238 228 221 217 217 215 218 209 210 221 221 237 273 278
214 258 266 266 268 272 270 261 259 262 264 266 271 269 273 274 277 269 268 268 271 274 269 268 273 268 264 262 258 250 240 229 221 219 217 210 197 210 215 215 224 254 266 279
235 252 258 266 266 282 269 260 250 253 252 259 260 264 270 269 268 271 273 269 274 273 275 271 264 262 261 259 257 246 237 225 222 217 212 203 207 205 211 219 237 250 263 279
244 237 227 258 146 238 263 248 243 250 247 245 257 269 268 269 273 274 276 273 272 274 270 270 263 264 263 262 250 238 223 214 213 207 203 199 202 201 205 216 232 254 279 290
233 234 231 229 217 268 268 273 255 250 257 248 256 262 264 272 279 277 270 268 271 268 275 269 263 258 252 244 235 220 205 201 199 199 197 193 190 192 199 222 243 264 281 282
228 229 222 185 218 249 276 238 242 246 263 243 249 255 267 268 259 261 273 275 253 261 264 254 246 246 242 231 217 200 191 189 190 192 194 195 196 198 206 220 249 275 278 275
207 212 217 222 241 266 244 266 231 228 280 188 249 263 256 252 258 289 274 193 192 214 226 232 234 226 224 212 194 188 183 186 186 187 190 192 197 204 218 237 251 256 264 269
191 181 212 222 229 255 219 245 228 255 257 270 282 267 268 269 268 268 237 230 220 226 226 248 227 209 192 190 181 177 181 182 179 181 189 198 209 224 243 251 249 253 261 263
242 211 215 199 224 244 258 257 263 272 258 262 268 284 268 267 264 259 249 240 235 224 225 214 208 190 183 175 181 180 187 193 202 200 208 218 233 244 259 263 259 264 262 268
243 244 230 241 241 253 260 263 274 265 275 286 276 263 261 265 263 248 263 250 241 233 224 214 198 187 182 179 179 181 183 198 202 214 222 237 252 266 273 276 275 264 259 271
321 330 284 261 288 323 292 311 325 306 284 295 284 270 273 269 261 258 264 275 256 248 233 221 208 197 183 172 162 170 181 192 188 202 217 234 247 269 275 280 274 266 270 269
234 265 259 280 24 355 327 326 338 334 306 293 291 283 274 274 281 279 264 265 259 240 208 198 199 192 180 168 162 182 196 200 199 240 251 258 262 270 262 261 274 275 278 261